Regional Weather Roundup
Issued by NWS Little Rock, AR

Home | Current Version | Previous Version | Graphics & Text | Print | Product List | Glossary On
Versions: 1 2 3 4 5 6 7 8 9 10 11 12 13 14 15 16 17 18 19 20 21 22 23 24 25 26 27 28 29 30 31 32 33 34 35 36 37 38 39 40 41 42 43 44 45 46 47 48 49 50
000
ASUS44 KLZK 241310
RWRLZK
ARKANSAS STATE WEATHER ROUNDUP
NATIONAL WEATHER SERVICE LITTLE ROCK AR
ISSUED BY NATIONAL WEATHER SERVICE MEMPHIS TN
700 AM CST FRI FEB 24 2017

NOTE: "FAIR" INDICATES FEW OR NO CLOUDS BELOW 12,000 FEET WITH NO
SIGNIFICANT WEATHER AND/OR OBSTRUCTIONS TO VISIBILITY.

ARZ001-003-010-029-241400-
NORTHWEST ARKANSAS

CITY           SKY/WX    TMP DP  RH WIND       PRES   REMARKS
FORT SMITH     MOCLDY    51  42  71 W13       29.66R
HARRISON       MOCLDY    52  45  77 NW13G21   29.59R
BENTONVILLE    CLOUDY    46  39  76 N9        29.66R
ROGERS         CLOUDY    46  41  82 W15       29.65R
SILOAM SPGS    CLOUDY    45  37  76 NW15      29.67R
HIGHFILL       CLOUDY    46  41  82 NW14      29.66R
SPRINGDALE     CLOUDY    46  43  87 NW18G25   29.67R
$$

ARZ004-005-016-241400-
NORTH CENTRAL ARKANSAS

CITY           SKY/WX    TMP DP  RH WIND       PRES   REMARKS
BATESVILLE     PTCLDY    61  48  63 S10G16    29.60S
FLIPPIN        MOCLDY    61  48  63 S3        29.52R
MTN HOME       MOCLDY    59  52  77 SW8       29.53R
$$

ARZ040-041-241400-
WEST CENTRAL ARKANSAS

CITY           SKY/WX    TMP DP  RH WIND       PRES   REMARKS
MOUNT IDA      MOCLDY    61  54  77 CALM      29.60R
$$

ARZ017-025-026-028-241400-
NORTHEAST ARKANSAS

CITY           SKY/WX    TMP DP  RH WIND       PRES   REMARKS
JONESBORO      PTCLDY    63  52  67 SW21G32   29.60R
NEWPORT        PTCLDY    60  52  74 S20       29.59R
WALNUT RIDGE   PTCLDY    59  50  72 S15       29.59R
BLYTHEVILLE    PTCLDY    63  55  75 S18G24    29.62S
$$

ARZ022-033-042-044-241400-
CENTRAL ARKANSAS

CITY           SKY/WX    TMP DP  RH WIND       PRES   REMARKS
LITTLE ROCK    MOCLDY    58  55  90 S16       29.63R
JACKSONVILLE   PTCLDY    59  54  85 S9        29.61F
SEARCY         PTCLDY    56  53  90 S10       29.63F
HOT SPRINGS    CLOUDY    61  57  87 SW9       29.64R
RUSSELLVILLE   PTCLDY    62  52  69 SW7       29.58R
$$

ARZ036-241400-
EAST ARKANSAS

CITY           SKY/WX    TMP DP  RH WIND       PRES   REMARKS
WEST MEMPHIS   CLEAR     60  57  89 S20       29.66S
$$

ARZ050-070-073-241400-
SOUTHWEST ARKANSAS

CITY           SKY/WX    TMP DP  RH WIND       PRES   REMARKS
TEXARKANA      MOCLDY    59  57  93 S16G23    29.64R
EL DORADO      PTCLDY    60  56  86 S10       29.67F
DEQUEEN        CLEAR     49  49 100 CALM      29.61R FOG
$$

ARZ056-057-069-241400-
SOUTHEAST ARKANSAS

CITY           SKY/WX    TMP DP  RH WIND       PRES   REMARKS
PINE BLUFF     PTCLDY    57  53  86 S17       29.65F
STUTTGART      CLEAR     59  46  63 S15       29.65R
MONTICELLO     MOCLDY    60  56  86 S13G18    29.69S
$$




USA.gov is the U.S. government's official web portal to all federal, state and local government web resources and services.